Tracking 20721 objects as of 2-Jun-2020
HD Live streaming from Space Station
objects crossing your sky now

GSTAR 4

Track GSTAR 4 now!
GSTAR 4 is classified as:


NORAD ID: 20946
Int'l Code: 1990-100B
Perigee: 36,070.7 km
Apogee: 36,156.8 km
Inclination: 12.8 °
Period: 1,452.5 minutes
Semi major axis: 42484 km
RCS: 8.7599 m2 (large)
Launch date: November 20, 1990
Source: United States (US)
Launch site: FRENCH GUIANA (FRGUI)
aabbcc
Your satellite tracking list
Your tracking list is empty




NASA's NSSDC Master Catalog

Two Line Element Set (TLE):
1 20946U 90100B   20151.62786799 -.00000071  00000-0  00000+0 0  9992
2 20946  12.7599  25.9100 0010124 339.7706 202.5627  0.99141013102393
Source of the keplerian elements: AFSPC